Tracking 31027 objects as of 19-Jul-2025
HD Live streaming from Space Station
objects crossing your sky now

STARLINK-5707

Track STARLINK-5707 now!
10-day predictions
STARLINK-5707 is classified as:


NORAD ID: 56879
Int'l Code: 2023-083D
Perigee: 565.2 km
Apogee: 567.3 km
Inclination: 43.0 °
Period: 95.8 minutes
Semi major axis: 6937 km
RCS: Unknown
Launch date: June 12, 2023
Source: United States (US)
Launch site: AIR FORCE EASTERN TEST RANGE (AFETR)
Your satellite tracking list
OBJECT A
Track 1 satellite(s)




NASA's NSSDC Master Catalog

Two Line Element Set (TLE):
1 56879U 23083D   25199.60228925  .00000953  00000-0  85586-4 0  9994
2 56879  43.0043 274.0874 0001549 269.3632  90.7033 15.02533979116456
Source of the keplerian elements: AFSPC